Regional Weather Roundup
Issued by NWS Charleston, SC

Current Version | Previous Version | Graphics & Text | Print | Product List | Glossary On
Versions: 1 2 3 4 5 6 7 8 9 10 11 12 13 14 15 16 17 18 19 20 21 22 23 24 25 26 27 28 29 30 31 32 33 34 35 36 37 38 39 40 41 42 43 44 45 46 47 48 49 50
000 ASUS42 KCHS 281813 RWRCHS REGIONAL WEATHER ROUNDUP NATIONAL WEATHER SERVICE CHARLESTON SC 200 PM EDT WED SEP 28 2016 NOTE: "FAIR" INDICATES FEW OR NO CLOUDS BELOW 12,000 FEET WITH NO SIGNIFICANT WEATHER AND/OR OBSTRUCTIONS TO VISIBILITY. NOT ALL STATIONS ARE QUALITY CONTROLLED. USE DATA WITH CAUTION... ESPECIALLY DEWPOINT OBSERVATIONS. SCZ027-030-031-034>040-042>050-281900- ...SOUTHEAST SOUTH CAROLINA... CITY SKY/WX TMP DP RH WIND PRES REMARKS N CHARLESTON PTSUNNY 87 71 58 SW8 29.95F HX 93 6HR MIN TEMP: 73; 6HR MAX TEMP: 89; WATERFRONT PRK N/A 84 74 72 SW8 29.95S HX 91 MOUNT PLEASANT FAIR 84 75 74 S14 29.95F HX 92 JOHNS ISLAND FAIR 84 75 74 S13 29.96F HX 92 PINOPOLIS N/A 84 73 70 SW5 29.89S HX 91 MONCKS CORNER FAIR 86 70 58 SW6 29.94F HX 90 SUMMERVILLE FAIR 88 73 62 S8 29.95F HX 96 BEAUFORT MCAS MOSUNNY 87 71 58 S6 29.95F HX 93 6HR MIN TEMP: 74; 6HR MAX TEMP: 89; BEAUFORT ARPT FAIR 86 72 62 S7 29.95F HX 92 HILTON HEAD IS MOSUNNY 88 75 66 S7G13 29.97 HX 97 WALTERBORO PTCLDY 90 68 48 S10 29.95F HX 93 ALLENDALE FAIR 88 70 55 S8 29.93F HX 92 ...SOUTHERN MIDLANDS AND PEE DEE... CITY SKY/WX TMP DP RH WIND PRES REMARKS GEORGETOWN TSTM 73 68 83 SW10G22 29.99R KINGSTREE FAIR 88 70 55 S7 29.94F HX 92 ORANGEBURG MOSUNNY 87 69 54 SW10 29.93F HX 91 6HR MIN TEMP: 70; 6HR MAX TEMP: 88; BARNWELL NOT AVBL AIKEN FAIR 86 66 51 S8G16 29.95F MANNING FAIR 86 70 58 S10 29.94F HX 90 COLUMBIA PTSUNNY 91 69 48 SW12 29.90F HX 96 6HR MIN TEMP: 72; 6HR MAX TEMP: 91; SUMTER PTSUNNY 90 71 52 S10 29.89F HX 95 6HR MIN TEMP: 71; 6HR MAX TEMP: 90; FLORENCE MOSUNNY 88 71 57 S12 29.93F HX 94 6HR MIN TEMP: 70; 6HR MAX TEMP: 89; MYRTLE BEACH MOSUNNY 84 70 61 S17 29.98S N MYRTLE BEACH SUNNY 83 72 69 S10 29.96F 6HR MIN TEMP: 72; 6HR MAX TEMP: 83; $$ GAZ063-065-086>088-099>101-113>116-118-119-134>141-150-281900- ...SOUTHEAST GEORGIA... CITY SKY/WX TMP DP RH WIND PRES REMARKS SAVANNAH ARPT PTSUNNY 90 68 48 S9 29.95F HX 94 6HR MIN TEMP: 73; 6HR MAX TEMP: 90; HUNTER AAF MOSUNNY 88 78 72 S8 29.93F HX 101 6HR MIN TEMP: 72; 6HR MAX TEMP: 88; FORT STEWART MOSUNNY 89 69 51 S5 29.93F HX 93 6HR MIN TEMP: 70; 6HR MAX TEMP: 90; STATESBORO PTSUNNY 89 71 54 SW10 29.94F HX 96 SYLVANIA NOT AVBL CLAXTON FAIR 89 70 52 SE7 29.94F HX 94 ...CSRA...CENTRAL AND FAR SOUTHEAST GEORGIA... CITY SKY/WX TMP DP RH WIND PRES REMARKS THOMSON MOSUNNY 90 69 51 SW7 29.96F HX 94 AUGUSTA-BUSH MOSUNNY 90 68 48 SW12G23 29.90F HX 94 6HR MIN TEMP: 69; 6HR MAX TEMP: 91; AUGUSTA-DANIEL MOSUNNY 91 65 41 SW13G18 29.92F HX 93 SWAINSBORO MOCLDY 90 66 45 S7 29.94F HX 92 VIDALIA MOSUNNY 90 72 55 SW7 29.94F HX 96 EASTMAN CLOUDY 85 63 47 NW3 29.96F HAZLEHURST FAIR 91 72 52 N12 29.94F HX 98 ALMA MOSUNNY 88 69 53 SW7G18 29.95F HX 92 6HR MIN TEMP: 68; 6HR MAX TEMP: 89; WAYCROSS MOSUNNY 91 72 53 W9 29.96F HX 99 JESUP FAIR 90 73 58 S7 29.96F HX 98 BAXLEY FAIR 90 73 58 SW9 29.95F HX 98 BRUNSWICK MOSUNNY 88 72 58 S10 29.97F HX 94 SAINT SIMONS MOSUNNY 86 72 62 S9 29.96F HX 92 6HR MIN TEMP: 74; 6HR MAX TEMP: 88; $$ SCZ027-028-034-036>038-045-046-048>050-GAZ119-141-281900- ...LAKE AND SUPPLEMENTAL COASTAL OBSERVATIONS... STATION/POSITION TIME TEMP WIND PRES WAVE SWELL AIR SEA DIR/SP/G HT/PER HT/PER/DIR (UTC) (F) (DEG/KT/KT) (MB) (FT/S) (FT/S/D) WINYAH BAY NOT AVBL LAKE MURRAY 1720 85 CALM / 4 1012.5 ACE BASIN NERRS 1645 85 220/ 1 1015.0 FORT PULASKI 1748 86 81 150/ 5/ 8 1014.9F SAPELO ISLAND 1700 88 170/ 6 1015.0 $$ ANZ835-935-AMZ111-154-330-350-352-354-370-450-454-472-281900- ...C-MAN AND BUOY OBSERVATIONS... STATION/POSITION TIME TEMP WIND PRES WAVE SWELL AIR SEA DIR/SP/G HT/PER HT/PER/DIR (UTC) (F) (DEG/KT/KT) (MB) (FT/S) (FT/S/D) BUOY 41004 1750 81 83 200/ 6/ 8 1014.8F 2/10 2/100/10 BUOY 41008 1750 81 83 190/ 8/ 10 1014.6F 2/11 2/ 80/11 FOLLY BEACH CMAN 1800 82 190/ 10/ 12 1015.0F CAPERS NEARSHORE 1708 81 81 220/ 10/ 14 1014.9S FRIPP NEARSHORE 1708 83 81 200/ 12/ 14 1015.1S STATION/POSITION TIME TEMP WIND PRES WAVE SWELL AIR SEA DIR/SP/G HT/PER HT/PER/DIR (UTC) (F) (DEG/KT/KT) (MB) (FT/S) (FT/S/D) 5E ST. MARYS GA 1801 84 N/A 2/12 2/100/12 FRYING PAN BUOY 1750 81 82 160/ 4/ 6 1015.0F 3/ 6 3/110/ 6 BUOY 41025 1750 77 84 20/ 4/ 6 1015.3F 4/ 7 3/ 90/ 7 CAPE LOOKOUT NC 1800 80 140/ 4/ 5 1014.8F BUOY 41002 1750 81 83 220/ 16/ 17 1014.9F 4/11 2/ 50/11 BUOY 41010 NOT AVBL ST AUGUSTINE FL 1800 86 85 230/ 4/ 5 1015.5F $$

USA.gov is the U.S. government's official web portal to all federal, state and local government web resources and services.